Regional Weather Roundup
Issued by NWS

Home | Current Version | Previous Version | Text Only | Print | Product List | Glossary On
Versions: 1 2 3 4 5 6 7 8 9 10 11 12 13 14 15 16 17 18 19 20 21 22 23 24 25 26 27 28 29 30 31 32 33 34 35 36 37 38 39 40 41 42 43 44 45 46 47 48 49 50
000
ASUS44 KBMX 242210
RWRAL

ALABAMA REGIONAL WEATHER ROUNDUP
NATIONAL WEATHER SERVICE BIRMINGHAM AL
500 PM CDT SUN MAY 24 2015

NOTE: "FAIR" INDICATES FEW OR NO CLOUDS BELOW 12,000 FEET
WITH NO SIGNIFICANT WEATHER AND/OR OBSTRUCTIONS TO VISIBILITY.

THE REMARK "TC" DENOTES TEMPERATURE IN DEGREES CELSIUS.

ALZ001>011-014-016>018-020-242300-
NORTH ALABAMA

CITY           SKY/WX    TMP DP  RH WIND       PRES   REMARKS
MUSCLE SHOALS  MOSUNNY   82  66  58 S16       30.10F
HUNTSVILLE     PTSUNNY   84  65  52 S15       30.13F
DECATUR        PTSUNNY   79  67  66 SE17      30.13F
HALEYVILLE     PTSUNNY   79  70  74 SE10G18   30.15S
GADSDEN        MOSUNNY  N/A N/A N/A SE13      30.15S
$$

ALZ012-013-022-023-030>036-040>044-242300-
WEST CENTRAL ALABAMA

CITY           SKY/WX    TMP DP  RH WIND       PRES   REMARKS
TUSCALOOSA     LGT RAIN  71  68  90 VRB5      30.13R
$$

ALZ015-024>027-033>036-040>044-242300-
CENTRAL ALABAMA

CITY           SKY/WX    TMP DP  RH WIND       PRES   REMARKS
BIRMINGHAM     CLOUDY    80  67  64 SE6       30.17S
MONTGOMERY     CLOUDY    83  70  64 SE9       30.13R
SHELBY CO ARPT CLOUDY    79  68  69 SE7       30.15S
MAXWELL AFB    CLOUDY    85  69  59 SE13      30.11F THUNDER
GREENVILLE     FAIR      79  73  82 SE3       30.12F
$$

ALZ019-021-028-029-037-038-045>048-242300-
EAST CENTRAL ALABAMA

CITY           SKY/WX    TMP DP  RH WIND       PRES   REMARKS
ANNISTON       MOSUNNY   83  65  54 E9        30.17F
ALEXANDER CITY MOSUNNY   81  63  53 SE7       30.17S
AUBURN         MOSUNNY   82  61  47 E9G17     30.19F
$$

ALZ051>064-242300-
SOUTHWEST ALABAMA

CITY           SKY/WX    TMP DP  RH WIND       PRES   REMARKS
MOBILE         PTSUNNY   81  74  79 SE21      30.07F
BROOKLEY FIELD MOSUNNY   83  75  77 SE18G29   30.08F HX  90
EVERGREEN      PTSUNNY   83  73  72 SE12      30.11F
$$

ALZ049-050-065>069-242300-
SOUTHEAST ALABAMA

CITY           SKY/WX    TMP DP  RH WIND       PRES   REMARKS
DOTHAN         MOSUNNY   88  63  43 SE13      30.16F
OZARK          PTSUNNY   86  67  52 SE8       30.12F
TROY           PTSUNNY   84  68  58 SE7       30.14S
EUFAULA        FAIR      89  65  44 SE9       30.14F HX  91
$$


USA.gov is the U.S. government's official web portal to all federal, state and local government web resources and services.